• In Hungary
  • List of Countries
  • For 7 days
  • Water Temperature
  • Satellite Maps
  • Weather Map
  • News
  • Weather Widgets
  • user-avatar
    Login

    Hourly Weather Voykovskiy

    Today, 24 September, Monday

    Time Temperature Precipitation Wind Pressure Humidity
    00:00 +17°C° 0 mm 3 mps 743 mmHg 59%
    01:00 +16°C° 0 mm 3 mps 743 mmHg 58%
    02:00 +16°C° 0 mm 3 mps 743 mmHg 55%
    03:00 +14°C° 0 mm 3 mps 743 mmHg 52%
    04:00 +13°C° 0 mm 3 mps 743 mmHg 51%
    05:00 +13°C° 0 mm 3 mps 743 mmHg 51%
    06:00 +13°C° 0 mm 3 mps 743 mmHg 50%
    07:00 +13°C° 0 mm 3 mps 743 mmHg 49%
    08:00 +15°C° 0 mm 4 mps 742 mmHg 45%
    09:00 +17°C° 0 mm 6 mps 742 mmHg 40%
    10:00 +20°C° 0 mm 6 mps 742 mmHg 34%
    11:00 +21°C° 0 mm 7 mps 742 mmHg 33%
    12:00 +22°C° 0 mm 7 mps 742 mmHg 32%
    13:00 +23°C° 0 mm 8 mps 742 mmHg 30%
    14:00 +23°C° 0 mm 7 mps 741 mmHg 31%
    15:00 +23°C° 0 mm 7 mps 741 mmHg 32%
    16:00 +23°C° 0 mm 6 mps 741 mmHg 33%
    17:00 +21°C° 0 mm 5 mps 741 mmHg 39%
    18:00 +20°C° 0 mm 4 mps 741 mmHg 44%
    19:00 +18°C° 0 mm 3 mps 741 mmHg 49%
    20:00 +17°C° 0 mm 3 mps 741 mmHg 54%
    21:00 +16°C° 0 mm 2 mps 741 mmHg 58%
    22:00 +15°C° 0 mm 1 mps 741 mmHg 62%
    23:00 +15°C° 0 mm 2 mps 741 mmHg 63%

    Tomorrow, 25 September, Tuesday

    Time Temperature Precipitation Wind Pressure Humidity
    00:00 +15°C° 0 mm 2 mps 741 mmHg 63%
    01:00 +15°C° 0 mm 2 mps 741 mmHg 64%
    02:00 +14°C° 0 mm 2 mps 741 mmHg 65%
    03:00 +14°C° 0 mm 2 mps 741 mmHg 67%
    04:00 +14°C° 0 mm 2 mps 741 mmHg 68%
    05:00 +13°C° 0 mm 2 mps 741 mmHg 73%
    06:00 +13°C° 0 mm 2 mps 741 mmHg 77%
    07:00 +13°C° 0 mm 2 mps 741 mmHg 81%
    08:00 +13°C° 0 mm 3 mps 741 mmHg 76%
    09:00 +15°C° 0 mm 4 mps 741 mmHg 70%
    10:00 +16°C° 0 mm 5 mps 741 mmHg 64%
    11:00 +17°C° 0 mm 6 mps 741 mmHg 57%
    12:00 +19°C° 0 mm 6 mps 741 mmHg 49%
    13:00 +20°C° 0 mm 6 mps 741 mmHg 42%
    14:00 +20°C° 0 mm 6 mps 741 mmHg 40%
    15:00 +20°C° 0 mm 6 mps 741 mmHg 39%
    16:00 +20°C° 0 mm 6 mps 741 mmHg 38%
    17:00 +19°C° 0 mm 5 mps 741 mmHg 42%
    18:00 +17°C° 0 mm 4 mps 741 mmHg 46%
    19:00 +16°C° 0 mm 3 mps 741 mmHg 50%
    20:00 +14°C° 0 mm 3 mps 741 mmHg 51%
    21:00 +14°C° 0 mm 3 mps 741 mmHg 53%
    22:00 +14°C° 0 mm 4 mps 741 mmHg 55%
    23:00 +13°C° 0 mm 4 mps 741 mmHg 55%

    Day after tomorrow, 26 September, Wednesday

    Time Temperature Precipitation Wind Pressure Humidity
    00:00 +13°C° 0 mm 4 mps 741 mmHg 55%
    01:00 +13°C° 0 mm 4 mps 741 mmHg 55%
    02:00 +13°C° 0 mm 4 mps 742 mmHg 53%
    03:00 +13°C° 0 mm 5 mps 742 mmHg 51%
    04:00 +14°C° 0 mm 5 mps 742 mmHg 49%
    05:00 +13°C° 0 mm 5 mps 742 mmHg 49%
    06:00 +13°C° 0 mm 5 mps 742 mmHg 48%
    07:00 +13°C° 0 mm 5 mps 742 mmHg 48%
    08:00 +14°C° 0 mm 5 mps 743 mmHg 45%
    09:00 +17°C° 0 mm 4 mps 743 mmHg 43%
    10:00 +18°C° 0 mm 4 mps 744 mmHg 40%
    11:00 +18°C° 0.1 mm 4 mps 744 mmHg 45%
    12:00 +18°C° 0.1 mm 4 mps 744 mmHg 49%
    13:00 +18°C° 0.1 mm 4 mps 744 mmHg 53%
    14:00 +17°C° 0.2 mm 4 mps 744 mmHg 60%
    15:00 +15°C° 0.2 mm 4 mps 745 mmHg 67%
    16:00 +13°C° 0.2 mm 4 mps 745 mmHg 74%
    17:00 +13°C° 0.2 mm 4 mps 745 mmHg 78%
    18:00 +12°C° 0.2 mm 4 mps 745 mmHg 81%
    19:00 +11°C° 0.2 mm 4 mps 745 mmHg 84%
    20:00 +11°C° 0.3 mm 4 mps 745 mmHg 84%
    21:00 +10°C° 0.3 mm 4 mps 745 mmHg 84%
    22:00 +10°C° 0.3 mm 4 mps 745 mmHg 84%
    23:00 +8°C° 0.8 mm 4 mps 745 mmHg 85%

    27 September, Thursday

    Time Temperature Precipitation Wind Pressure Humidity
    00:00 +9°C° 0.8 mm 3 mps 745 mmHg 86%
    01:00 +9°C° 0.8 mm 3 mps 745 mmHg 87%
    02:00 +9°C° 0.8 mm 2 mps 746 mmHg 88%
    03:00 +9°C° 0.8 mm 2 mps 746 mmHg 89%
    04:00 +8°C° 0.8 mm 2 mps 746 mmHg 90%
    05:00 +8°C° 0 mm 2 mps 746 mmHg 91%
    06:00 +8°C° 0 mm 2 mps 746 mmHg 92%
    07:00 +7°C° 0 mm 2 mps 745 mmHg 93%
    08:00 +8°C° 0 mm 2 mps 746 mmHg 85%
    09:00 +9°C° 0 mm 3 mps 746 mmHg 78%
    10:00 +10°C° 0 mm 3 mps 746 mmHg 71%
    11:00 +10°C° 0 mm 3 mps 746 mmHg 67%
    12:00 +10°C° 0 mm 4 mps 745 mmHg 63%
    13:00 +10°C° 0 mm 4 mps 745 mmHg 59%
    14:00 +11°C° 0 mm 4 mps 745 mmHg 56%
    15:00 +11°C° 0 mm 4 mps 745 mmHg 52%
    16:00 +12°C° 0 mm 5 mps 744 mmHg 49%
    17:00 +11°C° 0 mm 4 mps 744 mmHg 52%
    18:00 +10°C° 0 mm 4 mps 744 mmHg 56%
    19:00 +9°C° 0 mm 3 mps 743 mmHg 59%
    20:00 +8°C° 0 mm 4 mps 743 mmHg 59%
    21:00 +8°C° 0 mm 4 mps 742 mmHg 59%
    22:00 +8°C° 0 mm 5 mps 742 mmHg 58%
    23:00 +8°C° 0 mm 5 mps 742 mmHg 57%

    28 September, Friday

    Time Temperature Precipitation Wind Pressure Humidity
    00:00 +9°C° 0 mm 5 mps 741 mmHg 56%
    01:00 +9°C° 0 mm 6 mps 741 mmHg 54%
    02:00 +8°C° 0.1 mm 6 mps 740 mmHg 56%
    03:00 +8°C° 0.1 mm 6 mps 740 mmHg 58%
    04:00 +8°C° 0.1 mm 7 mps 740 mmHg 60%
    05:00 +7°C° 0 mm 6 mps 740 mmHg 61%
    06:00 +7°C° 0 mm 6 mps 740 mmHg 63%
    07:00 +7°C° 0 mm 5 mps 740 mmHg 64%
    08:00 +7°C° 0 mm 6 mps 740 mmHg 64%
    09:00 +8°C° 0 mm 6 mps 740 mmHg 65%
    10:00 +9°C° 0 mm 7 mps 741 mmHg 65%
    11:00 +9°C° 0 mm 7 mps 741 mmHg 61%
    12:00 +10°C° 0 mm 6 mps 741 mmHg 57%
    13:00 +11°C° 0 mm 6 mps 741 mmHg 53%
    14:00 +11°C° 0 mm 6 mps 742 mmHg 50%
    15:00 +13°C° 0 mm 6 mps 742 mmHg 47%
    16:00 +13°C° 0 mm 6 mps 742 mmHg 44%
    17:00 +12°C° 0 mm 5 mps 742 mmHg 48%
    18:00 +11°C° 0 mm 4 mps 742 mmHg 53%
    19:00 +10°C° 0 mm 3 mps 742 mmHg 57%
    20:00 +10°C° 0 mm 4 mps 741 mmHg 58%
    21:00 +10°C° 0 mm 4 mps 741 mmHg 59%
    22:00 +8°C° 0 mm 5 mps 741 mmHg 60%
    23:00 +9°C° 0 mm 5 mps 741 mmHg 61%

    29 September, Saturday

    Time Temperature Precipitation Wind Pressure Humidity
    00:00 +9°C° 0 mm 6 mps 740 mmHg 61%
    01:00 +9°C° 0 mm 6 mps 740 mmHg 62%
    02:00 +9°C° 0 mm 7 mps 740 mmHg 64%
    03:00 +9°C° 0 mm 7 mps 739 mmHg 66%
    04:00 +9°C° 0 mm 8 mps 739 mmHg 68%
    05:00 +10°C° 0 mm 8 mps 739 mmHg 69%
    06:00 +10°C° 0 mm 8 mps 739 mmHg 69%
    07:00 +10°C° 0 mm 8 mps 739 mmHg 69%
    08:00 +10°C° 0.2 mm 7 mps 740 mmHg 71%
    09:00 +10°C° 0.2 mm 7 mps 741 mmHg 74%
    10:00 +10°C° 0.2 mm 6 mps 742 mmHg 76%
    11:00 +12°C° 0 mm 5 mps 742 mmHg 67%
    12:00 +13°C° 0 mm 5 mps 743 mmHg 57%
    13:00 +14°C° 0 mm 4 mps 744 mmHg 48%
    14:00 +14°C° 0 mm 3 mps 744 mmHg 44%
    15:00 +14°C° 0 mm 3 mps 744 mmHg 41%
    16:00 +15°C° 0 mm 2 mps 744 mmHg 37%
    17:00 +14°C° 0 mm 2 mps 744 mmHg 41%
    18:00 +12°C° 0 mm 2 mps 745 mmHg 45%
    19:00 +11°C° 0 mm 1 mps 745 mmHg 49%
    20:00 +9°C° 0 mm 2 mps 745 mmHg 51%
    21:00 +9°C° 0 mm 2 mps 745 mmHg 53%
    22:00 +8°C° 0 mm 2 mps 745 mmHg 55%
    23:00 +9°C° 0.1 mm 2 mps 745 mmHg 56%
    Show more